Location: Spruce Knob
(38.6995°N, 79.5330°W)
Time: 17:48:03
(UTC-04:00)

MOZHAYETS 4 - Visible Passes

Search period start: 31 March 2023 00:00
Search period end: 10 April 2023 00:00
Orbit: 658 x 676 km, 98.2° (Epoch: 31 March)

Date Brightness Start Highest point End Pass type
(mag) Time Alt. Az. Time Alt. Az. Time Alt. Az.
31 Mar 10.7 03:13:05 11° NNE 03:13:05 11° NNE 03:13:22 10° NNE visible
01 Apr 10.3 03:45:03 14° N 03:45:03 14° N 03:45:44 10° N visible
02 Apr 10.1 04:16:59 14° NNW 04:16:59 14° NNW 04:17:36 10° NNW visible
03 Apr 10.6 03:10:48 14° NNE 03:10:48 14° NNE 03:11:35 10° NNE visible
03 Apr 10.2 04:48:55 10° NNW 04:48:55 10° NNW 04:48:59 10° NNW visible
04 Apr 10.1 03:42:44 18° N 03:42:44 18° N 03:43:59 10° N visible
05 Apr 9.8 04:14:39 18° NNW 04:14:39 18° NNW 04:15:51 10° NNW visible
06 Apr 10.4 03:08:26 16° NNE 03:08:26 16° NNE 03:09:45 10° NNE visible
06 Apr 9.9 04:46:34 14° NW 04:46:34 14° NW 04:47:16 10° NNW visible
07 Apr 9.8 03:40:22 22° NNE 03:40:22 22° NNE 03:42:10 10° N visible
08 Apr 9.5 04:12:17 24° NNW 04:12:17 24° NNW 04:14:04 10° NNW visible
09 Apr 10.3 03:06:04 17° NE 03:06:04 17° NE 03:07:52 10° NNE visible
09 Apr 9.6 04:44:11 18° NW 04:44:11 18° NW 04:45:30 10° NNW visible
